GFSCGP_sfc_wetblb_057.txt.gz
Wetbulb
40.64 35.40 33.52 36.39 37.36 37.77 34.97 34.34 32.77 36.83 41.53 38.30 38.41 37.75 40.23 43.37 42.59 40.26 42.01 41.23 40.45 40.35 41.84 42.33 42.63 42.71 42.85 42.76 42.38 42.70 43.39 44.61 45.35 47.60 48.13 48.48 49.08 50.54 51.74 52.46 52.75 52.30 52.07 51.95
37.04 33.44 39.59 40.69 40.59 38.76 37.21 34.67 33.52 37.28 40.87 38.67 37.52 36.50 41.18 43.00 41.59 39.99 39.72 38.95 39.44 39.80 39.49 39.75 39.99 40.50 40.79 41.08 41.54 41.64 41.98 42.31 43.20 44.71 45.77 47.38 47.55 48.09 48.96 49.44 50.84 51.61 51.05 50.32
35.93 39.15 42.46 41.48 39.04 37.84 35.53 34.12 33.76 34.84 37.41 37.98 35.50 33.65 37.27 40.30 39.80 40.02 39.68 39.67 39.20 38.24 37.51 38.00 38.07 37.40 38.17 38.52 38.94 40.12 40.97 41.61 41.46 42.15 43.49 43.83 44.25 44.56 44.32 44.90 45.46 47.34 49.86 49.36
38.25 42.36 41.25 38.97 37.88 38.41 33.30 39.04 37.76 35.89 31.77 28.98 34.61 25.87 34.79 37.12 35.54 36.64 36.79 36.37 36.63 37.09 37.76 37.85 37.35 37.04 36.89 36.42 37.54 37.96 38.59 39.55 40.96 40.87 39.95 38.68 38.88 38.38 39.78 40.98 42.19 43.04 45.06 47.33
37.96 36.94 35.62 35.81 37.90 39.24 36.00 37.65 35.45 34.03 30.75 29.45 30.68 27.09 32.07 35.57 32.75 34.13 34.82 35.79 36.03 36.54 36.95 36.35 36.21 37.07 37.31 37.02 35.80 35.80 36.88 37.48 38.05 38.90 38.92 38.13 37.00 37.73 38.00 38.97 38.96 39.93 40.93 42.29
37.56 38.42 37.60 37.84 38.08 38.44 38.85 35.28 34.57 32.28 30.37 25.08 31.02 29.50 30.60 32.04 34.74 34.14 35.12 35.75 36.76 36.77 36.63 36.57 36.99 36.71 36.03 35.66 35.25 35.39 35.57 35.75 36.24 36.32 36.85 36.83 35.99 35.87 35.93 36.11 36.42 37.26 38.51 39.63
36.21 36.19 37.46 38.98 34.37 36.35 35.22 32.04 26.10 24.35 23.13 24.67 32.44 29.11 32.55 34.88 36.58 35.79 34.95 34.98 35.64 35.82 34.36 33.83 34.19 34.41 34.47 33.85 34.41 36.17 35.52 35.08 35.41 35.04 35.25 35.18 35.12 34.71 34.68 34.80 34.98 34.95 35.76 36.43
30.67 29.36 36.16 38.71 37.18 35.50 34.08 35.19 28.60 18.44 22.22 25.28 31.23 26.64 32.95 35.89 36.74 36.32 35.36 34.29 34.09 32.31 32.44 32.07 32.50 32.59 32.88 33.02 32.92 33.24 33.60 33.26 33.51 33.55 34.03 34.59 34.91 34.38 34.26 34.26 34.59 34.32 34.37 34.67
31.35 31.17 36.98 37.83 38.89 39.48 35.06 31.79 36.24 29.53 18.78 20.53 26.37 31.27 34.69 36.07 34.15 33.70 33.18 32.64 31.09 31.10 31.06 30.97 31.14 31.10 30.95 31.18 31.31 31.73 31.69 31.95 31.73 31.72 32.18 32.67 33.43 32.54 31.56 31.54 32.07 32.36 32.50 33.70
36.49 30.52 37.02 36.82 37.55 37.64 36.55 36.56 28.56 27.93 16.36 12.49 23.27 24.72 27.38 31.26 31.23 32.43 31.46 30.55 30.66 31.05 30.12 29.78 29.85 30.39 30.51 30.11 30.20 30.62 30.84 30.82 30.62 30.43 30.12 31.23 31.20 31.72 30.74 30.09 28.96 29.34 30.49 31.01
37.31 33.15 31.61 35.07 33.14 33.17 32.67 30.51 31.77 31.72 28.35 20.86 17.56 23.05 32.52 33.30 31.81 30.53 31.73 32.66 30.82 30.54 28.73 28.85 29.69 30.57 31.29 31.98 31.57 31.57 31.41 31.18 30.76 30.44 29.28 29.01 29.57 30.19 30.06 28.35 28.12 28.37 28.39 28.85
37.47 36.16 29.29 31.84 36.36 36.90 35.07 31.83 32.26 26.04 24.65 27.07 27.48 27.62 35.73 33.18 32.32 32.52 31.92 32.29 31.14 31.42 29.06 27.98 28.94 29.66 30.46 30.61 30.75 30.27 30.37 30.12 30.39 30.67 29.85 29.06 28.89 29.36 29.14 28.31 27.77 27.50 26.69 27.54
37.19 31.47 16.79 20.21 29.18 33.79 31.54 32.96 33.26 32.20 30.31 23.65 23.47 25.33 33.80 33.90 32.86 31.65 31.16 30.60 28.85 28.32 27.96 29.78 29.16 28.60 29.31 29.41 30.06 30.02 29.13 28.59 29.05 28.67 27.92 27.43 27.02 26.64 27.41 28.09 27.62 28.14 27.58 26.55
38.56 29.80 22.79 20.38 24.48 29.32 25.93 29.44 29.85 28.85 22.35 21.62 23.19 25.31 30.66 31.58 29.81 28.16 27.22 26.35 26.15 26.28 27.29 27.08 27.52 27.16 27.47 28.40 28.09 28.19 28.44 29.23 29.26 28.86 28.04 27.31 26.97 27.73 27.91 28.04 26.65 26.76 26.90 26.22
34.02 24.88 27.14 27.40 29.61 27.82 26.60 26.53 25.86 23.36 24.34 18.03 22.86 22.49 26.58 27.51 25.66 24.29 24.26 25.12 25.34 25.75 26.48 26.36 26.35 26.35 26.44 26.32 26.41 27.15 27.60 27.86 28.19 27.45 26.96 26.77 27.54 27.67 27.75 27.13 27.14 26.82 26.45 25.99
29.02 19.94 22.56 16.75 25.17 24.94 22.72 24.29 23.85 24.27 24.55 23.59 24.21 23.50 28.23 23.29 22.92 21.46 23.46 23.72 23.98 24.52 25.35 25.26 26.41 26.65 26.52 26.75 26.66 27.05 26.69 26.61 26.22 25.50 25.83 27.06 27.57 28.26 28.29 28.45 28.26 27.98 27.45 26.66
24.50 19.22 12.56 8.54 20.12 16.83 10.00 18.99 22.28 22.98 23.29 22.78 19.01 22.95 20.47 22.35 23.49 22.48 21.88 23.47 23.83 24.29 25.50 25.61 25.69 25.76 25.92 25.60 26.58 25.79 25.41 25.13 24.62 25.31 25.88 26.01 26.18 26.04 26.52 27.04 26.89 26.62 26.42 26.63
21.18 15.76 11.01 4.30 5.71 -1.06 18.35 22.29 23.02 21.28 21.07 21.78 20.64 18.96 20.45 22.33 23.07 23.24 23.07 23.22 24.58 25.29 24.99 25.02 24.90 24.77 25.45 25.08 24.11 23.35 23.74 23.00 22.80 22.22 21.94 22.08 21.70 20.51 19.89 19.01 19.04 19.24 19.89 20.79
25.60 21.70 6.54 3.81 -5.95 10.23 18.73 20.48 19.45 18.60 15.28 17.66 17.87 20.63 22.10 22.66 21.24 19.89 25.13 25.75 25.17 23.78 25.21 25.29 24.40 23.85 22.22 21.39 20.74 20.25 19.74 19.45 18.77 18.15 18.22 18.40 16.22 13.74 14.24 12.42 12.89 13.46 13.48 14.07
22.53 23.63 15.29 -5.46 -1.65 -2.70 10.36 17.51 21.28 18.24 9.11 13.05 15.67 15.35 17.19 21.42 12.52 18.73 23.81 25.46 25.09 25.07 24.49 22.61 21.23 21.27 20.16 19.05 19.05 17.08 16.15 15.46 14.39 15.21 14.85 14.20 12.83 10.23 8.34 8.40 7.42 8.02 7.84 9.22
6.75 5.77 13.61 10.65 1.25 5.75 18.13 21.22 22.77 6.72 11.65 20.22 21.23 18.08 17.51 17.11 20.14 23.82 24.40 23.31 23.46 22.78 21.06 21.10 19.16 18.56 18.09 17.74 16.17 13.70 13.16 11.69 13.12 12.48 11.43 10.24 9.04 6.49 5.55 4.95 5.16 4.09 3.69 5.27
9.02 4.55 2.09 4.92 3.76 2.54 21.78 20.09 15.82 20.53 22.92 24.19 22.12 22.54 22.56 23.40 24.03 23.85 23.35 21.56 19.90 18.95 18.74 19.07 16.49 15.73 15.91 15.44 12.85 10.62 9.61 11.67 10.19 8.85 7.01 5.07 3.72 3.63 4.33 2.04 2.12 2.11 1.65 1.04
9.90 13.73 8.37 11.78 10.06 20.28 21.30 20.76 24.23 24.53 23.04 23.09 22.63 23.39 23.28 23.19 23.15 22.76 20.55 18.49 18.33 17.29 17.49 16.51 13.20 12.59 12.82 12.39 10.96 7.56 8.56 8.59 6.96 3.66 1.36 0.78 1.63 2.31 2.48 0.59 0.48 0.38 0.90 0.50
16.54 19.12 14.30 13.30 18.92 21.06 23.28 23.79 25.07 24.94 24.29 25.30 24.93 24.32 23.58 22.37 21.20 19.83 19.21 18.22 16.34 15.46 13.83 12.80 10.48 9.18 8.49 9.26 8.89 7.26 6.98 6.32 2.34 -0.62 -0.53 0.38 0.05 -0.06 0.59 1.85 2.05 0.79 0.16 -0.03
17.87 18.88 14.46 14.33 20.66 22.34 23.09 23.78 25.02 25.11 25.26 24.93 23.48 22.74 21.77 19.92 17.81 17.35 15.77 14.58 13.51 12.45 11.52 9.92 8.10 7.36 6.13 6.20 5.30 4.77 4.75 2.60 0.06 -0.12 -0.07 -0.78 -0.48 -1.03 -0.62 0.89 0.91 1.80 3.80 4.95
22.52 20.18 16.90 14.48 23.58 21.62 22.56 24.83 25.67 24.44 24.13 24.33 20.90 18.19 19.24 18.33 16.13 14.36 12.51 12.32 10.53 8.86 7.93 6.58 5.65 4.02 3.04 2.66 2.10 2.26 1.53 0.30 -0.69 -1.28 -1.41 -1.67 -1.53 -1.06 -0.34 -0.52 -0.27 7.27 10.15 12.19

GFSCGP_sfc_wetblb_060.txt.gz
Wetbulb
39.30 34.68 32.94 35.63 36.97 35.86 34.03 32.55 30.94 35.05 39.63 35.80 36.79 35.94 39.09 41.95 40.18 37.46 37.70 37.16 36.88 36.68 38.27 38.86 39.10 39.14 39.26 39.65 40.15 40.58 40.43 40.97 42.90 43.49 46.72 47.49 47.85 48.77 49.17 50.24 51.47 52.80 53.47 53.91
35.66 32.30 38.93 39.34 38.35 36.76 35.63 33.01 32.72 36.16 38.79 37.27 35.84 36.47 37.51 36.62 36.58 37.38 36.98 36.19 36.11 36.32 36.50 37.14 37.21 37.25 37.06 36.80 37.68 38.78 39.78 40.00 40.51 41.38 41.37 43.77 44.94 44.57 44.14 44.34 44.28 45.14 47.80 49.97
35.70 38.34 40.70 39.15 37.04 36.59 34.56 32.99 32.69 34.23 36.16 35.71 32.98 32.96 34.33 35.45 36.97 37.11 36.50 36.28 36.05 35.16 34.87 35.75 35.94 35.38 36.13 35.50 35.62 36.85 37.82 39.04 39.34 40.14 40.61 40.75 40.53 40.61 40.04 40.72 40.99 41.68 42.05 43.54
36.69 40.72 39.74 37.38 36.80 37.59 32.66 38.09 36.59 35.06 30.59 27.55 33.48 25.33 31.42 32.65 32.88 33.89 33.71 33.09 33.62 34.11 34.92 35.28 35.26 34.72 34.83 34.21 35.34 36.20 36.78 37.13 38.30 38.61 37.77 36.62 36.17 35.57 36.54 37.51 38.38 39.11 39.74 40.35
37.20 36.45 35.86 36.36 37.85 38.44 35.62 36.49 34.33 32.58 29.87 28.29 28.86 25.91 29.18 32.66 30.40 31.40 32.40 33.46 33.44 33.73 33.94 33.56 33.96 34.93 34.82 34.24 33.80 33.86 35.24 35.84 36.10 36.52 36.53 35.76 34.98 35.61 35.55 36.10 35.83 36.67 37.60 38.22
36.82 37.85 36.78 37.43 37.06 37.46 37.68 34.24 33.68 30.65 28.77 24.08 29.58 28.19 28.63 29.94 32.07 31.57 32.93 33.25 34.28 33.89 33.61 33.75 34.06 33.96 33.27 33.15 33.41 33.77 33.66 33.49 34.80 34.86 34.72 34.21 32.94 33.06 32.92 33.36 33.44 34.01 34.71 35.23
34.43 35.35 36.50 37.59 34.13 34.84 33.64 30.65 25.27 23.50 22.53 24.01 30.76 26.82 29.89 32.63 34.24 33.80 32.73 32.41 32.48 32.16 31.59 31.45 31.46 31.16 31.42 31.42 31.72 33.69 32.27 31.55 31.96 32.56 33.05 33.13 32.61 31.80 31.57 31.39 31.53 31.22 31.64 31.77
30.33 28.59 34.89 37.41 36.20 33.73 31.76 32.87 27.17 18.04 21.10 24.66 28.49 25.59 29.95 33.16 34.61 34.41 33.51 31.87 31.32 30.41 30.77 30.66 31.17 30.69 30.48 31.10 30.43 30.68 31.06 30.36 30.64 30.91 31.44 31.71 32.44 31.09 30.33 29.55 29.44 30.02 30.07 30.38
30.86 30.08 35.79 36.18 36.94 37.41 33.14 30.00 34.68 27.17 14.87 19.88 26.22 28.01 32.45 32.66 31.07 30.95 30.58 30.42 29.11 29.00 28.92 29.18 29.35 29.52 29.27 29.30 29.93 29.92 30.60 30.27 30.32 30.32 30.46 30.51 30.82 31.25 30.13 29.61 28.54 28.15 28.22 29.89
34.93 28.84 34.47 35.91 36.38 35.09 34.30 35.82 28.62 27.01 15.68 13.14 22.74 24.75 26.60 28.79 29.07 30.05 29.18 29.01 29.23 29.02 28.46 28.25 28.63 28.64 28.60 28.62 28.69 29.05 29.40 29.64 29.39 29.19 28.98 29.64 29.47 30.24 30.20 29.23 28.28 27.91 28.15 28.57
36.06 32.53 30.82 33.95 32.27 32.29 31.80 29.24 31.58 31.65 27.57 18.62 15.56 22.70 30.39 31.69 31.50 30.20 30.21 30.85 29.39 28.41 27.31 27.63 28.52 29.21 29.27 28.84 28.60 28.56 28.70 28.78 28.70 28.94 28.43 27.79 27.99 28.49 28.81 28.41 28.02 27.28 27.43 27.35
36.94 33.31 24.54 30.58 33.43 35.25 33.17 31.28 31.78 26.98 23.49 24.83 24.76 25.54 34.64 34.18 32.70 31.95 31.60 32.15 29.85 29.57 27.58 27.09 27.86 28.13 28.10 28.34 28.28 27.90 28.25 27.94 28.25 28.47 28.14 28.09 28.43 27.31 26.56 26.69 27.41 27.60 26.55 27.20
36.79 29.82 17.56 22.74 27.87 31.77 29.71 31.15 31.13 30.17 26.85 18.76 20.00 22.72 32.23 32.12 31.28 32.22 31.16 30.37 29.57 28.00 27.35 27.00 26.35 26.62 27.07 27.29 27.33 27.27 27.20 27.37 27.89 27.42 26.69 26.85 26.85 26.37 26.10 26.04 26.81 27.28 27.57 27.11
38.03 27.43 24.67 25.15 24.47 27.80 24.81 29.24 29.51 27.06 19.74 20.51 22.91 23.76 27.65 30.31 29.10 28.19 25.87 26.49 24.84 25.09 26.16 25.58 26.03 26.08 25.92 26.23 25.46 25.55 26.15 26.78 26.78 26.50 25.80 25.46 25.61 26.06 26.43 27.12 26.97 27.35 27.27 26.42
33.59 23.05 26.65 27.07 28.94 28.43 27.13 26.91 27.04 24.58 24.39 20.76 24.20 23.95 28.24 24.47 25.41 25.61 22.96 23.73 24.29 24.72 23.99 24.35 25.24 24.91 25.13 25.24 24.98 25.39 25.48 25.33 25.37 24.93 24.81 24.97 25.67 26.25 26.02 25.78 26.17 26.72 27.05 27.22
28.52 19.25 21.12 15.51 25.08 25.15 22.87 25.30 26.01 26.43 26.29 23.48 24.91 22.97 28.24 21.85 21.64 20.67 22.57 23.64 24.23 23.68 24.59 26.08 26.14 25.50 25.56 25.02 24.92 25.69 24.58 23.81 24.21 23.49 23.71 24.24 23.93 24.00 23.71 23.71 23.05 22.25 22.40 21.99
25.76 20.36 13.95 9.50 17.73 16.26 10.71 16.49 22.84 23.06 23.55 23.46 19.15 22.96 21.59 20.59 22.39 21.41 21.82 23.66 23.81 24.25 25.26 25.47 25.13 24.96 25.63 24.77 24.71 22.00 21.84 22.14 21.37 21.56 21.62 21.39 21.19 20.45 19.94 19.05 18.28 17.42 16.67 16.73
21.42 15.46 10.35 3.41 4.47 -0.47 18.39 20.41 21.48 21.85 20.45 21.85 20.39 18.58 20.85 22.37 22.18 22.98 23.33 23.55 24.45 24.83 25.03 25.04 24.15 23.52 24.12 23.34 21.52 20.48 20.83 19.68 19.57 18.93 18.38 18.56 17.84 16.44 15.85 14.61 13.71 13.34 13.03 11.86
25.60 21.64 9.15 6.33 -3.17 10.87 19.59 20.89 18.48 18.16 15.24 18.59 19.86 20.96 22.05 22.25 21.24 19.96 23.96 24.29 24.14 24.01 25.09 24.64 23.56 23.04 20.51 19.55 18.96 18.47 17.69 17.53 16.64 15.61 15.63 15.35 14.00 11.52 11.29 9.16 9.21 9.25 7.96 7.15
23.46 24.78 13.93 -4.94 -3.03 -1.18 9.73 17.04 20.17 18.66 9.22 14.02 14.65 15.84 17.86 20.62 12.50 18.02 23.16 24.46 24.98 25.02 24.23 21.89 20.16 20.49 19.13 17.86 17.52 15.61 14.67 13.77 12.70 13.42 12.68 12.21 11.11 8.56 6.90 6.91 5.57 5.94 5.28 5.86
6.81 10.60 16.13 4.21 -2.99 5.26 17.02 20.38 22.20 7.75 11.33 17.46 20.26 18.58 16.94 16.53 19.50 22.53 24.36 23.89 24.54 23.24 21.25 19.69 18.45 17.41 16.67 16.43 14.90 12.31 11.92 10.57 11.80 10.93 10.03 8.99 7.89 5.55 4.67 4.16 4.23 3.14 2.60 3.68
9.49 7.74 7.28 8.12 8.66 1.90 20.92 19.45 15.17 20.04 22.48 23.86 22.06 21.67 21.65 22.83 24.20 23.86 23.82 23.01 20.86 19.68 18.59 18.20 15.62 14.93 14.89 14.49 11.96 9.73 8.72 10.67 9.29 8.18 6.24 4.28 2.77 2.64 3.51 1.18 1.49 1.57 1.01 0.32
10.13 13.85 8.72 11.76 10.87 20.34 21.58 20.54 24.84 24.64 23.10 22.98 22.76 23.04 23.16 23.22 22.86 23.61 22.04 19.91 18.92 16.95 17.56 15.52 12.48 11.83 11.97 11.69 10.28 6.71 7.83 7.94 6.51 3.16 1.17 0.47 0.94 1.70 1.82 -0.08 -0.12 -0.08 0.43 0.14
16.77 18.10 13.34 12.56 18.38 20.20 23.07 24.97 24.48 24.62 24.02 24.92 24.69 24.34 22.80 21.71 22.38 21.92 19.99 19.35 17.43 15.49 13.50 12.22 10.03 8.90 8.25 8.50 8.14 6.51 6.17 5.58 0.78 -1.03 -0.35 0.81 0.47 -0.13 0.05 1.15 1.15 -0.10 -0.43 -0.48
18.86 18.16 12.72 13.58 19.55 20.74 22.34 23.64 25.35 24.40 24.65 24.10 23.82 23.46 23.24 22.02 20.12 20.08 17.87 15.80 14.37 12.94 11.37 9.75 8.10 7.28 5.86 5.60 4.47 3.24 3.85 0.88 -0.83 -0.45 0.35 0.14 0.09 -1.06 -0.90 0.28 0.06 1.02 3.14 4.62
21.91 19.59 16.17 14.37 23.01 22.68 23.86 25.46 25.67 24.02 23.25 23.99 23.00 20.34 20.98 21.10 19.36 16.72 14.66 13.74 11.52 9.39 7.99 6.47 5.32 3.38 2.15 1.27 0.85 -0.13 -4.25 -4.28 -3.99 -2.68 -1.07 -0.79 -0.88 -0.68 -0.22 -0.72 -0.58 7.09 9.97 12.08

GFSCGP_sfc_wetblb_063.txt.gz
Wetbulb
38.36 34.27 32.75 35.41 36.00 34.57 33.69 31.71 30.21 33.10 37.94 35.34 35.88 34.93 36.77 36.54 35.25 34.42 34.50 34.18 33.92 34.19 35.66 36.38 36.56 36.37 36.82 37.35 38.03 38.60 38.72 39.34 40.68 40.71 42.87 45.04 42.39 42.15 41.89 43.04 42.84 43.14 44.77 48.94
35.29 32.35 38.12 38.36 37.06 35.73 33.85 31.41 31.45 35.03 38.12 36.53 35.02 35.37 34.11 34.58 34.10 34.36 33.70 32.86 33.23 34.02 34.55 35.34 35.42 35.33 35.12 35.21 36.26 37.19 37.79 38.09 38.79 39.47 38.88 40.33 40.48 39.95 39.71 40.10 39.82 39.87 40.56 41.17
35.18 37.65 39.73 38.06 35.83 34.45 33.01 31.92 31.55 33.46 34.73 34.30 32.24 31.19 31.51 33.32 34.17 34.37 33.85 33.81 33.58 32.86 32.80 33.50 34.00 33.32 33.86 33.43 34.20 35.62 36.40 37.01 37.30 38.21 38.69 38.46 37.86 36.87 36.76 36.78 36.97 37.92 38.59 38.65
36.03 39.89 38.79 35.51 35.33 35.63 31.38 37.50 36.19 34.38 30.83 27.29 31.84 24.88 29.21 30.79 30.78 31.83 31.77 31.01 31.32 31.70 32.75 33.20 32.80 32.41 32.49 32.14 33.03 34.37 35.24 35.65 36.43 36.48 35.84 34.98 34.02 32.64 33.54 34.44 34.34 35.11 36.15 36.31
36.27 36.56 35.55 34.97 36.24 38.04 35.42 36.55 34.59 32.17 29.01 27.31 27.21 25.49 26.82 30.61 28.83 29.73 30.60 31.36 31.27 31.28 31.48 31.25 31.84 32.63 32.50 32.42 31.13 31.13 33.24 33.99 34.29 34.37 33.63 32.91 32.01 32.45 32.59 32.31 31.50 32.22 33.01 33.57
37.22 37.39 36.29 36.88 36.07 37.60 37.39 33.81 32.73 29.85 28.19 23.38 28.91 28.08 27.67 27.54 30.39 30.00 31.37 31.40 32.32 31.55 31.02 31.01 31.47 31.81 30.93 30.98 30.77 30.17 30.77 30.74 32.26 32.26 32.52 31.35 30.21 29.66 29.58 29.40 29.61 30.34 30.86 31.12
33.14 34.62 35.71 36.57 33.42 33.97 32.84 29.82 24.41 22.83 22.19 23.48 28.62 26.49 28.73 31.12 32.43 32.56 31.24 30.85 30.75 30.55 29.70 29.52 29.14 29.29 29.61 29.43 29.91 30.79 29.77 29.06 29.48 29.86 30.23 30.73 29.83 29.16 28.47 28.29 27.96 28.15 29.03 29.23
29.82 28.22 34.63 36.47 35.35 32.92 30.89 31.13 25.41 17.53 20.09 23.93 27.78 25.72 29.02 31.10 33.08 33.37 32.81 31.11 29.94 29.24 29.75 29.48 29.61 29.09 28.95 29.25 28.82 29.24 29.03 28.68 29.23 29.18 29.13 29.21 29.74 29.04 28.56 27.81 27.22 26.91 27.33 28.30
30.31 30.57 34.31 34.80 35.37 36.34 31.07 28.46 32.74 25.94 13.67 19.71 25.55 26.86 29.98 30.76 30.07 30.01 29.32 29.15 28.16 29.22 29.41 29.20 29.49 28.87 29.10 29.34 28.91 29.12 28.94 28.71 29.14 29.38 29.18 28.99 29.31 29.25 28.57 28.63 28.25 27.68 27.85 29.57
35.08 28.49 33.38 33.73 34.89 33.60 33.37 34.72 27.72 26.16 15.09 14.32 22.58 24.24 26.36 26.92 27.45 28.25 27.72 27.74 27.90 28.10 27.33 27.30 27.45 27.64 27.69 27.76 28.05 28.25 28.78 28.60 28.37 28.25 27.84 28.43 28.02 28.60 28.81 28.57 27.81 27.49 27.67 27.79
34.98 32.27 29.83 33.12 31.36 31.11 30.52 28.51 29.62 30.11 26.42 17.52 14.57 21.99 29.38 30.64 30.57 28.41 28.59 29.47 28.65 27.33 26.56 26.64 27.19 27.45 27.64 27.38 26.99 27.16 27.16 27.27 27.26 27.33 27.00 26.45 26.52 26.80 26.93 26.80 26.82 26.80 26.94 26.77
36.21 33.17 24.77 29.74 32.16 33.91 32.30 31.27 30.92 28.43 23.81 23.58 23.46 25.50 31.36 33.13 32.37 31.14 30.08 30.55 28.72 27.72 26.47 26.15 27.07 27.59 27.41 27.50 27.29 26.80 26.52 26.20 26.53 26.76 26.24 26.18 26.03 25.90 25.34 25.15 25.65 26.51 25.95 26.63
37.56 31.29 19.50 26.34 28.16 30.35 29.76 31.07 30.36 29.05 25.57 22.81 20.85 23.23 30.87 30.88 30.36 31.06 30.26 30.34 28.96 27.79 25.74 25.79 25.47 25.33 25.53 25.54 25.51 24.96 24.75 24.56 25.07 24.79 24.85 25.23 25.09 24.96 24.87 25.25 26.00 26.13 25.42 25.59
38.28 29.97 26.23 25.97 25.85 27.94 25.16 28.59 29.22 26.90 19.87 22.91 23.55 23.20 26.95 28.83 29.22 29.02 28.32 28.61 26.93 25.77 25.77 24.94 24.63 24.94 25.05 25.26 24.12 24.05 24.33 24.49 24.57 24.44 24.19 23.89 23.81 24.19 23.96 24.41 24.03 23.97 24.37 23.87
34.85 29.38 27.66 28.27 29.80 29.02 27.35 28.04 28.67 24.96 25.83 24.47 25.16 25.12 27.59 28.38 28.14 27.71 26.39 25.02 23.23 23.51 23.80 23.40 23.94 23.82 23.80 23.57 23.54 24.23 23.83 23.49 22.67 21.73 22.11 22.05 22.49 22.47 21.99 21.70 21.84 21.80 20.84 20.48
30.08 26.69 26.39 24.82 24.69 24.61 24.73 26.63 28.26 27.17 26.97 24.01 25.02 26.07 29.26 26.50 22.92 21.82 23.07 22.97 23.14 23.63 24.17 24.90 25.37 25.53 25.36 25.33 24.10 24.39 22.23 21.08 21.48 20.22 20.79 21.33 20.99 21.01 20.57 20.40 19.42 18.54 17.68 16.94
27.54 24.46 22.92 20.49 17.58 18.31 16.13 21.23 26.23 27.93 26.85 27.82 22.91 26.39 21.66 19.33 22.88 22.02 21.39 22.51 23.37 24.12 24.61 24.69 25.13 25.13 25.19 24.45 23.96 20.10 19.77 19.79 19.52 20.09 20.04 19.35 19.10 18.01 17.57 16.95 15.48 14.42 13.52 13.35
23.17 19.55 16.46 12.11 9.45 4.51 20.79 19.47 21.14 25.64 21.83 23.18 20.61 17.94 20.18 22.24 21.78 22.31 22.17 22.48 23.74 24.68 24.51 24.72 24.00 23.57 23.82 22.27 20.09 19.20 19.78 18.69 18.67 17.94 17.00 16.88 15.91 14.07 13.64 12.44 11.58 10.96 10.55 9.59
25.69 23.51 12.84 14.77 5.43 13.23 20.21 19.72 18.16 18.58 17.63 19.98 21.72 21.02 21.29 21.06 20.55 18.24 23.05 23.08 23.59 23.81 24.56 24.08 24.60 23.33 20.27 19.56 18.80 17.65 17.08 17.04 16.00 14.63 14.73 14.16 12.77 10.22 9.82 7.67 7.81 8.03 6.94 6.27
24.32 24.53 22.01 1.12 5.71 4.66 10.52 16.44 19.86 19.42 11.24 14.66 16.70 17.05 18.56 19.79 11.99 17.22 22.76 23.89 24.21 24.71 24.51 23.18 21.20 20.57 18.84 17.63 17.12 15.23 14.35 13.52 12.21 13.21 12.42 11.67 10.63 7.96 6.18 6.10 4.85 5.40 4.66 5.09
15.27 17.93 18.64 7.97 10.32 8.25 17.28 20.09 21.75 8.85 12.93 16.20 19.90 18.57 18.23 16.59 20.49 22.68 23.83 22.97 24.14 23.84 22.08 19.99 18.42 17.82 16.65 16.04 14.50 12.22 11.83 10.40 11.84 10.85 9.94 9.07 8.11 5.85 4.46 3.80 3.86 2.57 1.86 3.04
11.63 12.43 8.38 12.53 10.98 7.12 20.69 19.77 16.02 20.46 21.73 23.07 20.76 21.75 21.02 22.77 22.96 23.19 23.16 22.96 21.77 20.05 19.42 18.23 15.94 15.18 14.61 14.55 11.91 10.01 8.82 10.76 9.05 8.11 6.43 4.70 3.20 2.83 3.50 0.82 1.08 0.87 0.25 -0.46
10.43 14.92 10.98 15.01 14.07 20.25 21.74 20.81 24.26 24.56 23.22 22.87 23.01 23.45 23.06 22.76 22.01 22.92 22.48 21.51 20.00 18.61 18.34 16.24 13.39 12.38 11.88 11.84 10.00 6.87 8.00 7.69 6.38 1.15 0.01 -0.58 0.71 1.80 1.96 -0.25 -0.40 -0.66 -0.24 -0.77
15.73 17.47 13.19 13.86 18.49 19.40 22.51 24.57 24.57 24.58 24.43 25.14 24.88 24.24 22.02 21.37 22.05 22.21 21.57 20.74 18.49 16.61 14.55 12.67 10.42 9.16 8.52 8.50 8.46 6.34 5.96 5.20 -4.47 -5.50 -2.67 -0.21 0.13 0.26 0.41 1.25 0.99 -0.62 -1.27 -0.98
18.39 17.91 11.89 13.14 19.44 20.80 22.77 24.09 26.10 25.02 24.88 23.54 23.56 23.33 22.83 21.71 21.09 21.33 19.88 18.17 16.58 14.45 12.27 10.55 8.93 8.26 6.68 5.73 4.42 2.42 3.21 -2.02 -3.65 -2.44 -1.11 -1.02 -0.09 -0.86 -0.57 0.56 0.08 1.16 3.65 5.01
19.70 16.17 15.14 13.38 22.64 22.76 24.19 25.61 26.41 24.04 23.21 23.57 22.35 21.06 21.91 22.20 21.65 19.98 18.13 16.50 13.66 11.10 8.97 7.33 6.29 3.99 2.21 0.72 -0.09 -2.01 -6.30 -7.80 -8.92 -4.83 -2.25 -1.75 -1.47 -1.16 -0.93 -1.37 -1.01 6.83 9.80 12.06

GFSCGP_sfc_wetblb_069.txt.gz
Wetbulb
38.00 34.49 33.52 37.01 35.72 35.15 33.99 32.56 32.72 34.65 37.35 36.01 35.40 35.15 35.52 34.66 33.76 32.02 31.70 31.96 32.31 32.62 34.33 34.87 34.76 35.00 36.13 36.83 37.49 37.96 38.89 40.20 42.18 41.85 40.84 38.68 36.40 36.93 35.89 36.58 36.68 37.01 37.51 38.45
34.17 31.64 38.57 37.93 36.30 35.22 33.73 31.95 31.79 34.73 36.87 35.89 34.94 34.69 33.53 33.39 32.99 32.98 32.02 31.86 32.11 32.38 32.62 33.01 33.08 33.23 33.39 34.25 35.61 36.33 36.99 38.06 39.25 39.45 38.66 38.15 36.25 35.15 35.23 35.46 35.14 35.43 35.79 35.98
33.62 36.17 38.08 37.48 34.52 33.37 31.96 31.22 31.17 33.35 34.85 35.28 33.38 32.49 30.82 31.47 32.17 32.39 32.40 32.47 32.31 31.72 31.12 31.37 31.33 30.87 31.88 31.86 33.05 34.16 34.70 35.30 35.79 37.29 36.99 35.83 35.32 34.93 33.77 33.58 33.74 33.93 34.45 34.79
35.01 37.85 37.22 34.74 34.11 35.65 30.41 34.59 34.23 33.36 32.06 28.60 33.10 27.57 29.76 30.07 29.39 30.42 30.62 30.49 30.95 31.27 31.38 31.02 30.30 30.19 30.60 30.24 32.15 33.47 33.66 34.31 34.09 34.90 33.50 32.87 32.01 30.94 31.79 32.20 32.72 33.25 33.59 33.53
35.43 35.18 34.95 34.65 36.56 36.61 34.49 35.14 33.59 32.70 30.66 28.00 28.35 26.76 28.62 29.35 27.41 28.40 29.44 29.88 30.25 30.61 30.49 29.67 29.74 29.92 30.08 30.02 29.93 31.85 32.90 32.93 33.05 32.87 33.14 32.29 30.97 31.25 31.60 31.80 32.23 32.22 32.74 32.90
36.43 37.78 37.36 37.28 36.44 37.44 35.78 33.41 32.13 29.77 28.19 23.23 29.14 29.35 28.60 26.84 29.97 29.31 29.76 29.77 30.25 29.75 29.64 29.76 30.19 30.03 29.39 29.72 29.83 30.49 31.48 31.29 32.31 32.28 31.98 31.56 30.93 30.39 30.68 30.61 30.81 31.16 31.49 31.76
33.87 34.64 35.95 36.32 33.05 33.92 33.29 31.29 25.18 23.61 22.35 23.37 27.89 26.41 31.51 31.04 31.78 31.96 29.83 29.72 29.95 29.70 28.84 28.70 28.45 28.42 28.72 28.75 29.24 30.09 30.66 29.60 30.80 31.35 31.28 31.21 30.90 31.11 30.44 30.03 29.85 29.68 29.85 30.09
30.99 29.37 34.45 35.99 34.96 32.57 30.04 31.08 26.13 19.15 20.39 23.84 28.42 25.01 30.65 31.08 32.20 33.35 32.68 31.52 30.20 28.87 28.70 28.18 28.22 28.18 28.37 28.53 28.80 29.27 29.33 28.91 29.77 30.16 30.00 30.58 30.72 30.36 29.94 29.55 29.50 29.11 29.15 29.46
30.11 30.44 33.46 33.60 34.71 35.82 30.93 28.13 32.82 25.62 15.40 20.43 25.83 28.82 28.87 30.23 29.62 30.95 30.44 29.87 29.14 28.67 28.13 28.16 28.23 28.27 28.20 28.45 28.63 29.07 29.04 29.01 29.32 29.48 29.75 29.50 29.84 29.66 29.33 29.55 29.79 29.37 29.33 29.36
34.31 29.27 31.89 32.61 35.16 33.83 32.68 34.39 27.80 26.45 17.74 15.68 23.40 25.32 28.49 27.09 27.20 28.69 29.02 28.88 29.25 28.83 28.00 28.15 28.19 28.07 28.10 28.43 28.48 28.94 29.47 29.39 29.44 29.16 28.92 28.40 28.07 28.34 28.64 29.12 27.98 27.75 27.95 27.69
35.31 32.57 29.15 32.00 30.32 30.20 30.06 28.75 29.28 29.90 27.26 20.13 16.83 23.94 30.05 30.32 29.58 28.27 29.68 30.22 29.50 28.48 28.53 28.49 28.07 27.83 28.04 27.85 27.85 28.20 28.51 28.64 28.20 28.39 27.94 27.80 27.83 27.56 27.49 26.78 26.20 26.06 26.00 25.71
35.92 33.59 26.15 27.90 30.32 31.77 30.71 30.22 31.01 27.36 21.91 22.43 22.77 23.89 30.12 31.39 31.79 31.05 30.53 30.68 30.11 29.64 28.52 28.17 27.85 26.98 26.46 26.95 27.12 27.39 27.17 27.30 27.08 26.85 26.71 26.65 26.33 25.65 24.50 23.93 23.94 24.47 23.58 23.84
35.60 32.45 25.92 28.08 28.80 29.57 29.38 29.89 30.02 29.16 27.22 20.57 21.22 23.86 30.50 30.76 30.56 31.50 30.56 30.79 29.61 28.20 26.64 26.32 25.83 25.86 26.16 26.18 26.05 25.69 25.23 25.85 26.16 25.98 25.49 24.39 23.44 22.70 22.24 22.37 22.70 23.00 22.07 21.37
39.65 32.77 29.69 29.74 27.85 28.71 26.82 28.56 29.36 30.83 21.24 23.42 27.32 25.34 27.76 28.64 29.49 29.36 30.16 30.40 28.51 28.22 27.55 26.63 25.27 25.76 25.83 25.90 24.94 23.59 24.25 24.82 24.21 23.67 23.01 22.05 21.71 21.48 21.54 21.65 21.30 20.79 20.28 19.32
37.98 31.22 28.15 28.23 28.00 28.92 26.84 26.77 28.11 26.77 29.96 27.81 26.99 28.64 29.94 31.86 31.30 30.95 31.56 29.77 28.36 28.03 26.58 25.61 25.66 25.52 24.84 23.95 23.53 24.06 23.84 23.06 21.87 21.36 21.36 20.70 21.20 21.29 20.80 19.93 19.28 18.66 18.17 17.69
33.80 30.65 31.84 27.67 26.48 26.61 26.49 27.16 27.31 28.51 28.13 26.65 26.49 27.59 31.75 31.79 29.62 27.99 29.15 29.12 28.88 28.79 27.97 27.09 26.99 26.21 25.31 25.18 23.65 25.01 22.28 20.62 21.20 20.77 20.47 20.49 19.90 19.29 18.51 17.60 16.40 15.90 15.52 14.77
30.89 28.25 27.80 24.37 21.75 24.67 24.48 25.57 26.39 26.94 27.19 30.03 26.17 32.27 26.94 26.54 28.94 29.66 28.75 29.48 29.92 29.53 28.00 26.51 26.95 26.83 26.44 25.18 25.73 22.41 20.83 20.40 20.27 19.88 18.93 18.25 17.73 16.20 15.55 14.72 13.73 12.88 11.97 12.01
29.78 28.49 27.19 17.87 20.72 16.56 23.20 20.12 22.83 28.86 27.57 28.88 25.18 24.22 26.93 27.48 25.48 27.63 27.88 29.14 27.69 25.91 25.56 25.99 25.62 24.52 24.53 24.01 22.77 20.76 19.76 19.31 18.84 17.83 16.74 16.27 14.83 13.20 12.71 11.61 10.61 10.30 10.16 9.09
28.65 27.13 18.15 18.52 19.18 22.05 24.68 20.35 21.00 23.13 23.80 28.78 29.95 25.75 23.50 22.74 24.26 23.74 25.57 25.41 26.00 25.42 24.94 25.19 25.42 24.08 22.78 21.85 20.02 18.70 17.70 17.56 16.29 15.19 14.99 13.92 12.34 10.15 9.54 7.55 8.21 8.39 7.53 7.06
26.49 26.73 28.86 15.11 17.28 16.19 19.64 18.18 21.46 23.15 17.02 22.27 26.77 23.76 21.63 22.26 20.24 22.77 24.06 24.27 24.24 25.03 25.27 24.62 24.23 23.02 21.56 19.43 18.39 16.95 15.47 14.71 13.88 13.92 13.45 11.76 10.71 7.68 6.62 6.93 6.13 6.89 5.96 6.25
20.30 20.81 22.82 17.89 19.61 20.06 21.44 20.42 22.17 15.48 19.99 18.82 22.44 21.67 20.30 20.53 23.83 25.22 23.74 23.07 24.39 24.28 24.15 23.27 21.54 21.76 20.60 17.54 16.31 14.99 13.66 12.98 13.33 11.98 10.47 9.30 8.11 5.69 5.05 5.03 5.08 4.16 3.26 4.12
18.03 18.77 15.31 15.37 14.97 15.34 20.94 19.82 19.14 23.28 21.81 22.33 21.28 22.11 22.05 23.25 23.29 23.06 22.84 22.56 22.60 22.41 22.22 21.21 19.29 18.33 16.62 16.20 15.03 13.30 12.04 12.45 10.19 8.94 7.39 4.86 1.91 2.47 4.17 0.17 1.38 1.74 1.50 0.78
14.60 19.71 17.13 18.96 18.98 20.76 23.26 22.44 24.67 24.64 23.33 22.58 22.58 22.92 23.95 22.64 22.29 22.22 21.96 20.73 21.01 21.00 21.34 19.26 17.88 15.26 13.55 13.88 12.86 11.13 11.09 9.48 7.40 3.46 -1.52 -3.38 -0.75 1.55 2.06 -0.99 0.09 0.46 1.27 0.54
15.17 17.26 15.59 16.14 18.25 19.83 22.90 23.50 23.84 24.43 24.36 24.48 23.63 22.80 22.27 22.41 22.29 21.60 20.72 20.71 20.31 19.89 18.87 16.42 14.62 13.30 11.47 10.91 12.18 10.40 8.88 7.41 -0.39 -4.76 -3.55 -1.45 -2.20 -0.89 -0.62 1.52 1.97 0.95 -0.06 0.08
17.59 17.42 12.19 12.85 18.65 20.96 23.00 23.80 25.01 24.59 23.52 22.57 22.64 23.22 22.92 21.49 19.09 20.81 20.34 19.97 20.13 19.43 16.60 15.77 15.37 14.07 11.87 9.91 8.63 6.74 5.81 1.89 -0.36 -2.06 -0.84 -0.77 -0.43 -2.03 -0.88 0.44 0.91 1.36 4.04 5.79
18.47 16.13 14.91 13.71 22.10 23.05 23.89 26.47 25.56 23.35 22.96 22.96 22.49 20.60 21.51 22.25 21.81 20.20 19.19 19.83 18.70 17.58 14.38 13.69 12.94 11.53 9.14 8.11 6.42 2.93 0.14 -1.40 -3.71 -1.88 -0.49 -0.98 -1.26 -1.41 -0.53 -1.07 -0.98 5.46 9.27 12.34

GFSCGP_sfc_wetblb_072.txt.gz
Wetbulb
45.21 43.36 40.42 43.35 44.72 45.12 43.33 41.40 40.80 42.12 43.17 42.01 43.06 43.76 44.06 41.08 40.75 39.75 39.63 39.42 39.14 38.46 39.01 40.07 41.06 43.20 42.58 42.22 42.13 42.70 43.01 43.95 44.20 42.78 40.65 39.98 39.14 40.30 40.27 40.42 40.87 40.91 41.21 41.85
41.21 39.87 45.42 43.56 43.79 41.94 41.40 40.62 40.53 41.75 41.97 41.15 42.45 41.14 44.07 40.12 40.23 40.32 39.30 38.81 38.39 38.14 38.50 38.59 39.72 41.09 41.91 41.42 41.48 41.68 41.77 42.55 43.42 43.53 42.75 41.28 39.68 39.20 39.27 39.41 39.27 39.61 39.63 39.55
41.84 43.19 44.05 41.89 39.09 38.73 39.78 39.45 40.56 39.85 40.39 41.00 39.74 39.97 39.51 35.86 36.51 37.12 37.43 38.25 38.40 38.04 36.54 36.73 37.22 38.82 40.07 40.32 40.96 41.15 41.46 41.66 40.98 40.48 39.94 39.60 39.98 39.72 38.46 38.07 37.59 37.93 38.31 38.34
41.47 43.53 39.91 39.48 38.80 40.28 37.28 40.80 40.54 39.40 38.14 36.49 40.17 36.04 39.04 37.55 34.98 34.83 35.34 36.73 36.38 36.21 35.79 35.63 35.96 36.60 36.92 37.50 39.03 39.50 39.24 38.94 39.39 40.48 39.81 39.13 37.42 35.44 36.55 37.00 37.42 37.29 37.84 37.46
40.88 38.88 39.44 38.87 39.67 40.33 39.53 40.94 39.96 39.09 38.26 37.01 36.97 35.51 39.79 34.43 32.98 33.61 34.84 36.17 36.49 36.29 35.48 34.53 34.81 34.81 35.49 36.90 37.41 38.02 37.95 37.79 38.55 39.20 38.90 37.89 36.51 36.61 37.28 37.23 36.64 36.76 36.82 36.62
41.42 42.00 41.86 41.88 40.00 41.55 40.15 38.55 37.10 36.52 36.91 30.99 37.25 35.47 39.94 34.38 36.27 35.21 34.97 35.20 35.30 34.90 34.72 34.22 34.16 34.52 34.58 35.96 36.95 37.60 37.24 36.96 37.98 38.18 38.13 37.43 36.52 36.28 36.07 36.17 35.73 35.86 36.09 35.83
40.25 39.71 40.65 40.75 39.46 38.76 39.65 37.58 31.52 28.97 28.44 30.42 33.63 33.80 39.76 39.30 37.64 37.44 34.44 34.69 35.22 34.73 33.77 33.10 32.54 33.09 33.65 34.54 35.65 36.22 36.36 35.62 36.86 37.03 36.91 36.95 36.54 36.24 35.38 35.08 34.86 34.58 34.39 33.64
36.25 34.94 39.21 40.95 42.19 38.97 36.99 39.34 34.13 27.66 27.03 31.47 31.67 30.00 36.93 35.53 36.66 38.98 37.37 36.45 35.53 34.10 33.85 32.89 32.93 33.31 33.54 34.02 35.11 35.61 35.14 34.68 35.62 35.66 35.51 36.05 35.99 35.58 35.11 34.96 34.96 33.98 33.39 32.52
35.70 35.96 39.37 38.12 39.48 42.01 35.84 32.60 38.59 29.45 24.27 29.44 34.84 35.81 34.22 33.88 34.16 35.61 35.37 34.73 33.39 33.51 33.37 33.06 33.29 33.60 33.81 34.16 34.61 34.97 34.61 34.47 34.90 34.78 34.96 35.16 35.52 35.25 34.67 34.74 34.33 33.22 32.43 31.21
40.18 35.36 36.27 36.73 39.77 38.47 38.36 40.06 32.23 33.66 27.15 26.75 32.22 31.78 36.53 31.53 32.58 33.61 33.53 33.27 33.51 34.00 33.57 33.44 33.19 33.33 34.27 34.70 34.78 35.14 34.98 34.50 34.46 34.49 35.12 34.42 34.31 34.56 34.18 33.28 31.58 30.98 30.76 30.34
39.97 37.59 33.36 36.00 35.20 36.19 34.73 34.00 35.05 35.95 34.07 29.60 28.33 32.69 38.65 38.33 36.16 33.57 34.47 34.84 34.78 34.12 33.72 33.39 33.60 33.97 34.09 34.32 34.22 34.46 34.56 34.15 34.06 34.28 34.25 34.14 33.51 32.64 31.73 30.51 29.73 29.07 28.71 28.22
40.80 36.95 33.19 33.44 35.91 36.14 39.05 37.32 36.90 33.17 28.22 30.89 30.78 33.53 35.48 36.83 38.44 36.84 35.84 35.75 36.08 35.41 34.79 34.81 34.17 33.67 33.17 33.30 33.83 34.22 34.35 33.94 33.99 33.71 33.60 32.52 31.17 29.92 28.96 27.54 27.45 27.80 26.80 26.94
39.65 34.99 31.77 33.41 33.13 34.42 33.41 35.38 37.35 38.81 34.87 31.24 29.84 33.41 34.47 35.72 36.30 36.49 36.52 36.77 36.34 35.65 35.28 34.83 34.02 32.88 32.77 33.20 33.47 33.81 33.63 33.01 32.73 32.84 31.71 29.83 28.39 27.64 27.05 26.48 26.13 25.65 25.31 24.99
40.57 36.01 35.05 33.41 36.16 36.56 31.74 34.39 34.92 35.35 32.40 33.08 32.35 35.51 33.01 34.02 34.75 35.74 36.60 37.48 36.97 35.62 34.62 34.03 32.96 32.66 33.01 33.18 33.23 33.19 32.60 32.69 31.63 30.75 29.50 27.78 26.75 25.97 25.70 25.21 24.54 24.02 23.69 23.27
38.24 32.48 35.79 37.27 31.99 32.35 32.57 34.10 33.58 33.10 35.29 33.10 36.15 34.73 37.03 37.47 36.95 37.72 38.04 37.38 36.21 33.94 33.70 33.63 33.25 32.63 32.55 32.36 32.48 31.86 31.58 30.89 30.17 28.41 27.10 26.13 25.77 25.00 24.42 23.44 22.68 22.22 21.70 21.27
35.99 32.12 33.26 32.86 29.11 29.76 30.25 32.04 33.95 34.66 35.89 36.07 34.03 33.96 39.79 40.60 38.70 38.89 36.82 35.94 34.24 33.70 33.92 34.11 33.15 32.72 31.96 31.61 31.06 29.96 29.67 29.03 28.10 26.99 25.78 24.73 24.19 22.68 21.67 20.61 19.68 19.61 19.15 18.87
32.11 31.27 31.43 29.25 24.66 28.39 27.94 31.87 31.68 33.09 35.11 34.98 30.44 36.86 35.02 33.63 35.49 37.39 36.44 35.46 34.05 34.61 34.56 33.71 32.40 32.38 31.57 31.31 30.36 29.77 29.06 27.15 25.91 25.29 23.45 22.44 21.62 20.00 19.06 18.22 17.61 17.03 16.64 16.61
31.76 32.03 31.81 23.21 24.21 21.74 28.51 27.23 31.63 33.85 35.15 34.86 33.17 33.78 34.74 37.32 37.05 36.64 38.01 36.23 35.32 35.38 34.73 33.66 33.32 32.59 31.86 31.91 30.57 30.04 27.29 24.94 24.29 23.05 20.97 20.44 19.15 17.58 16.73 15.75 15.15 15.11 15.36 14.26
28.88 30.42 22.39 22.55 23.47 26.07 29.23 24.95 25.47 28.63 30.79 33.90 33.78 34.63 32.41 28.40 30.06 32.48 33.50 35.26 36.82 35.87 35.11 34.27 32.56 31.66 31.35 29.84 29.06 25.61 23.41 23.57 21.77 20.44 20.00 18.98 16.91 14.33 13.95 11.31 13.10 13.40 12.78 12.34
28.12 29.32 30.31 21.72 21.63 20.62 30.33 24.99 25.53 31.02 25.83 31.02 34.38 34.03 28.88 27.56 28.65 34.23 29.64 30.70 30.35 30.68 30.48 30.42 31.48 29.71 28.80 27.26 25.27 23.22 21.77 20.85 20.53 20.07 19.08 17.55 15.07 12.16 10.92 11.51 10.74 11.89 11.21 10.79
23.46 24.40 24.80 22.85 23.45 26.61 29.58 25.05 26.18 23.29 28.88 25.57 29.85 30.27 26.66 28.31 32.77 31.29 29.36 28.19 29.75 29.98 29.53 29.35 27.92 27.05 27.21 23.70 23.01 22.08 21.06 20.15 20.95 18.71 16.65 14.55 13.15 10.27 9.79 9.89 10.19 9.28 8.98 9.24
23.43 23.21 22.38 24.31 22.02 20.81 24.65 23.64 25.61 30.36 26.14 27.36 27.09 28.44 27.72 29.21 27.64 27.78 28.43 27.69 27.71 27.11 27.58 26.91 25.60 24.32 22.84 22.86 22.78 21.54 19.83 20.62 17.77 15.91 14.07 11.59 8.71 9.56 10.64 6.94 7.68 7.62 7.74 7.34
22.07 27.30 25.46 26.28 26.95 24.35 27.22 28.85 29.59 29.07 28.27 26.62 27.95 28.06 28.89 27.22 26.91 27.40 27.06 27.04 26.94 26.80 26.15 25.14 25.14 22.43 21.75 21.70 22.69 20.57 20.22 16.77 14.16 11.73 9.49 7.43 6.87 7.87 7.56 6.82 7.13 7.88 8.37 7.39
20.42 22.18 23.67 24.19 23.37 24.21 25.77 27.29 26.98 28.48 28.47 28.36 28.54 28.62 28.00 28.07 27.57 26.32 25.44 24.84 24.63 24.92 24.77 23.67 22.38 21.10 19.04 19.29 19.44 21.28 16.66 14.70 9.42 8.69 7.19 6.18 5.19 7.77 6.60 8.18 8.61 8.18 7.67 7.03
23.15 22.39 19.04 19.93 22.00 24.23 26.74 27.50 29.11 28.02 27.29 26.18 26.56 26.61 28.07 27.69 26.02 26.53 25.56 25.10 25.23 25.11 24.16 22.75 22.29 21.74 20.79 18.18 17.57 15.92 14.16 9.92 8.87 8.18 7.32 8.25 8.00 6.39 7.31 7.16 8.17 7.57 8.59 8.94
22.21 20.65 20.68 21.51 26.31 27.90 28.79 31.11 30.14 26.85 26.05 27.59 27.22 25.56 26.08 26.91 26.77 25.68 25.31 25.76 25.02 24.05 22.87 21.30 21.39 20.96 19.74 16.85 15.88 13.21 10.35 8.68 8.53 8.09 7.55 8.68 8.16 7.33 6.84 6.67 6.87 9.78 11.31 12.73

GFSCGP_sfc_wetblb_075.txt.gz
Wetbulb
47.91 44.66 42.02 44.60 46.19 46.72 46.11 44.33 43.59 46.02 46.82 44.14 44.89 45.61 47.68 46.14 45.50 46.21 45.74 44.90 44.28 43.22 42.88 44.24 45.94 43.92 42.99 43.61 44.26 44.40 43.69 43.25 42.76 41.52 40.47 40.89 40.19 40.99 42.35 42.60 42.23 42.02 42.58 42.80
42.81 40.78 46.65 48.31 46.87 45.74 44.87 42.41 42.45 45.77 46.53 42.70 44.19 44.26 47.38 47.72 45.24 46.06 45.56 44.47 43.59 41.64 42.01 42.84 44.86 42.64 41.95 41.84 42.24 42.49 42.62 42.85 42.39 42.83 42.57 42.19 41.64 41.38 40.95 41.04 40.68 40.24 40.20 40.57
43.02 46.08 47.27 45.93 43.28 42.24 42.84 41.84 42.25 42.44 44.50 43.75 42.63 41.48 44.20 47.53 45.23 43.19 43.67 44.10 42.79 41.48 40.70 41.24 43.41 42.09 41.85 41.17 41.65 41.72 41.35 41.62 42.29 42.84 42.31 41.71 41.68 41.29 39.68 39.14 38.94 38.88 38.89 38.93
43.90 47.73 43.79 43.53 41.55 42.43 39.31 45.41 43.24 42.20 40.36 36.95 43.55 35.38 44.22 46.37 39.77 39.84 40.30 40.74 41.02 40.85 40.72 40.51 41.39 41.83 41.08 41.05 42.48 42.19 42.50 42.43 43.26 44.15 42.80 41.21 39.37 37.12 37.88 38.24 38.31 38.15 37.98 37.49
42.54 41.54 41.18 40.86 42.47 43.58 41.76 43.92 42.16 41.71 40.00 40.15 40.72 36.16 41.36 43.41 38.67 39.25 39.77 39.75 40.22 39.82 39.39 38.97 39.53 39.33 39.80 40.67 40.61 40.17 39.90 40.42 41.73 41.61 40.72 39.45 37.98 38.54 38.74 38.38 37.56 37.29 36.86 36.61
43.10 44.42 44.14 43.87 43.02 43.87 43.45 41.03 39.86 39.44 39.45 32.95 39.02 38.46 39.81 41.12 40.83 41.83 39.84 39.41 39.13 38.75 38.65 38.09 37.59 37.54 37.49 38.72 38.98 39.57 38.48 38.38 40.09 39.67 39.65 39.09 37.99 37.39 37.23 37.28 36.50 36.34 36.15 35.48
41.62 41.48 43.64 43.95 40.21 41.23 41.84 39.11 32.68 31.35 30.02 30.10 38.56 38.35 41.04 44.02 41.74 42.96 38.47 38.42 38.51 37.89 36.76 35.54 34.76 34.92 35.67 36.44 37.37 37.53 37.60 36.95 38.21 38.34 38.28 38.26 37.81 37.36 36.59 36.06 35.57 35.27 34.37 33.60
38.85 36.78 41.93 43.13 42.90 41.01 38.82 39.67 34.68 28.86 29.46 33.27 33.77 32.24 39.61 38.86 41.66 42.72 40.88 39.52 38.38 36.70 36.24 34.76 34.84 34.96 35.35 36.13 36.63 37.04 36.72 36.31 36.76 37.03 36.73 37.13 37.26 36.79 36.32 35.95 34.82 33.90 32.93 32.80
39.60 39.29 43.41 44.22 44.74 45.00 39.32 36.13 41.70 32.84 29.36 30.11 35.78 38.20 37.61 37.38 37.00 39.55 38.36 37.84 36.90 35.95 35.54 34.66 35.06 35.46 35.75 36.13 36.43 36.50 36.02 35.96 36.20 36.26 36.52 36.17 36.35 36.03 35.25 34.95 34.39 33.15 32.45 31.90
43.50 37.50 40.45 40.94 41.69 42.77 41.78 42.78 32.65 34.07 28.37 27.71 35.46 36.59 37.07 33.54 34.65 36.84 36.45 36.43 36.62 36.19 35.29 35.10 35.00 35.35 35.84 36.16 36.58 36.53 36.39 35.62 35.72 35.98 35.98 35.68 35.59 35.56 34.62 33.62 32.05 31.58 31.22 30.67
43.44 40.49 35.14 37.41 36.99 37.58 36.46 36.21 38.16 38.40 35.90 31.20 30.77 35.09 43.00 42.23 38.58 36.42 37.18 37.30 36.72 35.68 35.22 35.21 35.07 35.39 35.70 36.07 36.01 35.78 35.85 35.20 34.90 35.37 35.24 34.91 34.33 33.54 32.68 31.25 30.56 29.95 29.94 28.96
43.39 39.43 36.14 35.71 40.10 41.87 42.22 39.11 38.80 33.36 31.12 33.95 33.46 35.65 39.75 40.67 41.85 39.67 38.35 37.88 37.70 36.98 36.28 35.75 35.24 35.14 35.13 35.02 35.29 35.04 35.32 35.10 35.35 35.24 34.92 33.65 32.42 31.68 30.40 29.29 29.08 29.09 28.06 27.95
41.86 34.57 32.85 32.88 36.07 36.91 35.21 38.51 39.48 39.08 37.32 33.77 31.60 35.17 37.27 38.49 40.08 40.48 39.27 38.46 38.17 37.23 36.31 35.76 35.16 34.26 34.38 34.70 34.85 35.26 35.36 34.99 34.98 34.74 33.53 31.82 30.49 29.82 28.92 28.20 27.74 27.24 26.45 26.19
42.58 35.40 35.04 34.62 36.92 38.00 32.86 35.52 36.96 36.70 32.45 33.63 34.51 37.33 35.56 37.33 38.01 38.84 39.57 39.26 38.69 37.30 36.27 35.72 35.06 34.53 34.56 34.57 34.81 35.20 34.97 34.79 34.22 33.64 32.03 30.25 29.25 28.64 28.10 27.13 26.23 25.36 24.96 24.48
39.52 31.65 35.04 37.53 37.85 34.24 35.34 35.86 35.68 33.82 35.91 33.70 37.00 37.46 40.94 39.88 39.42 39.74 40.26 39.65 38.18 36.66 36.19 35.96 35.06 34.64 34.46 34.33 34.65 35.04 34.91 33.86 33.44 31.85 30.31 28.98 28.30 27.61 26.68 25.31 24.38 23.51 22.95 22.38
37.60 32.73 34.75 33.54 37.49 35.16 31.43 34.22 36.54 36.62 36.41 37.51 38.21 38.49 41.51 43.82 42.36 41.16 39.83 39.15 37.73 37.19 36.81 36.32 35.82 34.28 33.46 33.35 34.02 33.65 33.16 32.45 31.84 30.14 28.78 27.85 26.63 25.28 24.21 22.82 21.76 21.43 20.88 20.69
33.11 32.40 31.27 30.32 32.71 29.85 26.97 31.71 34.41 36.64 37.93 38.08 34.04 38.64 38.51 37.09 38.45 40.29 39.76 39.18 38.02 37.99 36.83 36.11 35.44 34.41 33.60 33.43 33.51 32.31 31.91 31.39 29.91 28.26 26.78 25.20 24.45 22.87 22.20 21.19 20.08 19.25 18.68 18.72
31.73 31.85 31.91 29.62 27.53 22.91 31.99 30.92 37.84 36.82 38.54 39.13 37.12 37.02 38.07 38.25 39.82 39.37 41.84 39.76 37.77 37.61 37.24 36.46 36.14 35.47 34.12 33.97 33.09 32.37 30.94 28.31 27.29 25.81 23.72 23.95 22.87 21.25 19.92 18.81 17.98 17.56 17.80 16.69
31.33 32.63 26.66 26.12 25.65 30.22 31.73 30.30 31.86 32.73 34.15 38.31 36.79 37.89 36.52 30.98 32.16 35.05 36.67 39.26 40.03 39.34 38.75 38.11 37.41 35.36 34.04 32.65 31.94 30.07 27.24 26.09 25.13 23.86 22.60 22.51 20.92 18.27 17.87 15.43 16.11 16.22 15.45 15.01
29.70 31.31 31.58 25.42 24.29 22.54 33.70 28.32 29.23 34.07 27.96 36.61 36.55 37.29 34.76 31.13 32.35 37.65 33.20 34.35 35.91 37.50 37.51 36.21 35.68 34.40 32.44 31.41 29.92 26.64 25.08 24.27 23.02 23.13 22.45 21.57 18.86 16.14 14.92 15.40 14.01 14.99 13.99 13.80
26.03 27.75 27.74 26.78 26.49 29.49 33.98 27.71 28.39 25.92 31.85 30.62 35.82 35.06 30.28 32.26 36.56 32.93 33.03 32.63 33.40 32.87 32.60 33.80 32.61 30.80 30.56 28.80 26.81 25.01 24.32 22.93 23.84 22.83 20.65 18.75 16.94 14.81 14.76 13.46 13.72 12.65 11.81 12.13
26.89 26.14 25.11 27.56 24.84 22.01 27.64 25.17 25.64 30.93 28.67 29.50 32.48 32.11 31.00 31.92 29.82 30.03 30.53 30.15 29.49 28.94 29.78 29.17 27.91 27.20 25.98 26.40 26.08 24.50 22.81 24.20 21.77 19.83 17.92 15.59 13.50 14.17 13.21 10.73 11.03 10.57 10.21 9.59
24.79 30.35 29.24 30.02 29.29 26.75 28.09 28.98 30.69 30.38 29.76 29.17 30.95 31.21 32.30 29.63 28.59 28.78 28.37 28.61 28.40 28.03 26.72 27.08 26.58 24.24 24.09 24.62 25.86 23.21 23.41 20.47 18.32 16.10 13.75 12.14 11.16 11.61 11.98 10.11 9.87 10.54 11.10 10.35
24.64 25.83 26.25 28.13 26.42 26.70 27.16 29.65 28.63 29.99 30.06 30.31 30.23 30.64 30.29 29.19 28.40 27.19 27.20 26.45 25.95 26.26 25.45 25.17 24.13 22.80 21.59 22.65 23.96 24.60 20.43 18.47 14.44 13.21 11.31 10.61 8.92 9.64 9.15 11.02 11.81 11.34 11.43 10.86
25.62 24.99 23.71 24.49 24.50 26.28 28.41 29.06 30.73 29.62 28.51 27.38 27.66 29.04 29.45 29.61 27.45 27.39 26.53 25.81 26.00 25.83 25.22 24.50 24.04 23.50 22.65 21.85 21.84 20.30 18.41 14.65 14.02 12.93 11.31 11.56 11.30 9.70 11.21 10.92 12.06 11.33 12.19 11.67
25.33 24.44 23.40 24.99 28.96 29.86 30.82 32.51 31.79 28.38 27.20 28.25 27.45 26.15 27.89 28.41 27.86 27.39 26.47 27.03 26.36 25.47 24.96 23.65 23.58 22.85 22.80 20.78 19.88 17.55 15.43 14.21 13.49 12.26 11.35 12.49 12.36 10.61 10.38 10.64 10.24 14.37 14.92 15.69

GFSCGP_sfc_wetblb_078.txt.gz
Wetbulb
45.11 40.45 38.36 41.36 42.74 43.46 41.99 40.27 38.99 42.17 44.06 40.94 40.12 41.14 43.67 42.96 41.87 40.93 41.82 41.45 40.77 40.46 40.57 42.89 42.24 41.31 43.37 44.60 43.96 42.90 41.87 42.14 42.07 41.67 40.24 39.43 38.21 38.79 38.79 38.98 39.10 38.55 39.60 39.14
40.49 37.69 44.13 46.12 45.35 43.40 41.70 39.22 38.94 42.03 43.60 40.38 39.90 39.87 43.24 43.34 42.44 42.92 42.98 41.24 40.49 38.11 38.49 41.41 40.62 41.41 42.01 42.01 42.72 42.51 42.19 41.67 42.31 41.74 40.89 39.95 38.38 37.74 36.57 36.76 36.55 36.75 36.53 36.53
40.61 42.74 46.01 44.18 42.92 40.98 40.15 39.09 39.14 38.89 42.40 40.69 36.90 36.41 39.51 43.54 44.13 43.37 43.03 42.53 41.19 38.25 37.71 39.79 39.54 39.56 40.66 40.39 40.70 41.10 41.73 41.23 40.86 40.41 39.73 38.76 38.08 36.14 34.84 34.41 34.39 34.77 35.19 34.97
42.35 45.88 43.81 41.15 41.04 41.17 36.62 42.65 41.82 40.43 36.53 31.54 39.22 30.44 37.05 41.33 42.21 40.30 39.22 38.57 37.91 37.86 38.50 39.51 39.39 39.77 39.50 40.04 40.79 40.25 40.42 40.34 40.52 40.58 39.62 35.84 34.30 32.46 33.42 33.65 33.92 33.83 34.17 33.90
40.23 40.62 39.81 40.12 41.31 42.61 38.84 41.95 39.28 38.89 35.84 34.07 34.66 31.58 34.71 40.49 39.15 38.53 38.73 37.54 37.33 36.94 37.12 37.39 38.40 39.04 39.10 39.30 38.98 39.00 39.20 39.75 38.41 36.94 36.41 35.18 33.90 34.10 34.53 33.91 32.57 31.90 32.13 32.42
41.53 42.31 40.99 40.79 41.74 41.92 42.09 38.99 37.85 36.13 34.66 28.02 34.31 34.13 35.85 38.89 40.54 39.19 38.98 38.24 37.97 36.37 35.70 36.42 36.14 37.70 37.62 37.81 37.50 37.41 35.95 35.43 35.92 35.63 34.92 34.71 34.15 33.79 33.12 31.99 31.70 31.19 30.35 30.22
39.16 39.88 41.05 42.04 37.66 39.27 39.46 35.49 27.99 27.59 27.09 26.87 35.58 33.49 37.61 39.20 39.18 40.73 38.20 37.37 37.14 36.31 35.36 33.61 32.81 32.44 33.96 34.93 33.73 34.13 34.60 34.54 35.42 35.61 34.99 34.32 33.75 32.99 32.10 31.52 30.93 29.59 28.89 28.35
34.20 32.23 39.57 41.35 39.88 37.95 36.04 36.47 30.16 24.37 25.52 27.06 29.46 27.37 35.15 36.96 38.07 40.70 40.13 38.49 36.98 35.37 34.10 31.98 32.12 32.09 32.59 33.19 32.31 33.30 33.68 33.61 33.78 33.62 33.25 33.25 33.11 32.90 32.11 30.69 30.13 29.21 28.18 28.01
36.15 36.55 41.18 41.36 42.10 41.63 35.80 32.29 38.06 32.61 23.95 24.73 29.99 33.11 35.67 35.55 34.83 36.95 36.67 36.57 35.25 34.45 32.95 32.30 32.70 33.04 33.07 33.14 33.25 33.14 32.72 32.73 33.03 32.79 32.82 32.16 32.27 31.70 30.55 29.65 29.30 28.27 27.82 28.86
41.31 35.15 38.65 37.12 40.30 39.96 38.73 40.46 32.07 33.51 24.89 23.24 28.86 30.75 32.37 31.17 32.63 35.22 35.00 34.77 34.62 34.18 32.77 32.34 32.45 32.77 33.39 32.81 32.71 32.69 32.80 32.48 32.32 32.28 32.35 32.25 31.39 30.65 29.65 28.76 27.24 26.72 26.33 26.11
40.91 39.19 34.88 35.68 34.13 35.47 35.34 34.48 35.76 35.47 32.78 26.56 23.48 29.02 34.84 36.65 35.58 34.94 35.25 35.83 34.89 33.79 32.62 32.11 32.01 32.61 32.57 32.50 32.62 32.33 32.37 32.05 31.90 31.76 31.31 30.35 29.42 28.76 27.88 26.21 25.74 25.05 24.64 23.95
41.98 39.31 33.37 32.40 36.60 40.75 41.11 37.59 37.56 31.67 28.24 30.07 28.47 30.01 36.97 37.25 37.53 36.89 35.95 36.15 35.52 34.28 32.87 32.31 32.19 32.12 31.82 31.85 31.84 31.70 31.74 31.34 31.33 31.82 30.89 29.33 28.23 26.77 24.85 24.22 24.17 24.18 22.99 23.15
41.30 34.50 30.83 32.03 35.02 35.92 33.68 37.55 38.54 38.09 34.04 30.31 26.76 30.81 35.50 35.79 36.30 36.62 35.70 35.82 35.58 33.89 32.61 32.22 31.88 31.37 31.31 31.59 31.62 31.50 31.41 30.83 31.10 31.05 29.21 26.69 25.58 24.53 23.41 22.99 23.17 23.39 22.62 22.23
43.14 34.12 33.77 31.85 32.12 34.56 29.60 32.89 36.84 36.25 31.24 30.41 32.15 31.14 31.78 33.56 35.01 35.41 35.67 35.82 34.97 33.86 32.93 32.00 31.24 31.05 31.40 31.51 31.30 31.19 31.16 31.37 30.90 29.91 27.53 24.95 24.18 23.77 23.00 23.06 22.31 22.00 21.72 20.62
40.81 31.48 33.37 35.25 37.16 35.12 34.59 33.18 33.81 33.28 34.37 31.13 34.15 35.01 38.61 36.62 36.67 36.67 37.05 35.94 34.64 33.65 32.76 32.17 31.18 30.94 31.03 30.87 31.22 31.72 31.60 30.61 30.32 28.29 25.95 24.25 23.83 23.80 23.03 21.95 21.59 21.04 20.66 19.68
37.66 32.75 34.16 33.37 35.34 36.17 33.88 34.72 33.75 34.44 34.96 35.38 35.69 35.08 38.29 40.40 38.97 37.16 37.37 36.04 34.82 34.30 33.93 33.26 32.34 31.45 30.73 31.01 31.51 31.29 30.53 29.95 29.30 27.11 25.38 25.14 24.79 24.08 22.98 21.85 21.52 20.82 19.62 18.44
32.60 31.91 31.32 29.89 33.18 32.94 27.37 33.21 34.44 35.87 36.63 36.03 31.62 36.69 36.19 36.13 36.84 36.40 35.48 36.67 35.84 35.27 34.99 33.83 33.13 32.39 31.44 31.22 31.92 31.33 29.75 29.87 27.81 26.41 25.32 24.67 23.89 22.72 21.33 20.90 19.68 18.54 17.29 17.23
31.86 31.67 31.57 27.57 27.90 20.74 29.69 29.41 33.78 35.83 37.80 38.95 37.54 33.61 34.64 36.38 39.09 37.83 38.28 37.51 36.20 36.18 35.65 35.19 34.67 33.69 32.19 32.13 31.79 30.70 29.48 28.64 26.88 25.57 24.24 23.58 22.55 21.00 19.99 18.97 17.60 16.76 15.96 15.02
31.99 32.10 29.65 26.10 24.32 27.42 30.25 28.10 29.89 31.32 31.70 37.00 33.89 34.34 33.10 31.86 34.62 35.16 36.55 38.63 38.37 37.72 37.91 37.52 36.90 35.29 32.81 31.25 31.24 29.25 27.68 27.16 25.75 24.15 22.85 22.56 21.37 19.32 18.16 15.53 15.19 15.27 13.89 12.97
29.36 30.21 30.53 25.30 23.52 21.67 26.92 26.37 28.91 31.58 24.71 33.69 35.51 34.69 33.44 32.86 33.10 36.71 38.38 36.13 35.34 35.86 35.21 33.97 33.25 32.36 31.17 30.83 29.47 27.82 25.96 25.16 24.06 23.60 22.91 22.06 20.21 18.54 15.58 15.19 13.76 12.94 11.13 12.68
24.24 26.79 25.59 25.74 24.75 27.65 31.70 27.28 27.62 23.99 27.12 27.92 34.10 31.98 30.53 32.40 33.23 31.08 30.98 31.06 31.62 31.56 32.14 32.12 31.98 31.28 30.54 28.80 28.21 26.15 24.67 23.86 25.36 23.93 21.80 19.59 18.05 15.88 14.31 12.48 11.61 8.89 7.11 10.21
25.48 24.54 23.52 26.17 24.93 22.31 26.28 25.45 27.84 29.42 25.29 26.13 29.36 30.27 29.63 29.44 27.43 27.41 28.00 27.34 27.48 28.11 28.73 27.90 27.38 27.26 26.83 27.30 26.98 24.75 23.47 25.40 23.32 20.89 18.48 15.89 13.40 14.61 12.12 7.79 6.92 6.11 4.15 2.42
23.56 27.89 25.29 27.47 26.97 26.42 26.85 25.57 27.99 27.80 27.05 25.51 27.61 28.41 30.10 27.78 25.93 25.79 25.27 24.64 24.84 25.63 25.93 25.39 24.41 23.23 23.72 25.08 26.11 23.81 22.85 20.87 18.61 16.71 14.11 11.46 10.21 11.13 9.33 5.25 6.09 5.49 3.47 3.64
22.27 23.73 23.61 24.13 24.67 25.25 26.45 28.07 27.58 26.74 25.59 26.04 26.10 26.97 28.34 26.85 25.75 25.41 25.46 25.20 24.46 24.05 23.65 22.72 21.94 21.11 20.51 21.38 23.26 22.53 20.20 18.60 16.56 13.22 10.33 8.78 8.35 7.07 6.31 9.39 8.48 6.25 6.42 6.35
21.95 23.69 19.58 20.68 24.26 24.21 26.25 27.15 28.01 26.85 25.89 24.98 24.99 25.90 26.74 26.16 24.16 25.34 24.49 24.04 24.09 24.03 22.90 22.97 22.47 21.54 20.00 19.64 19.30 18.28 17.02 15.40 13.70 11.32 9.86 8.65 7.88 7.07 6.30 7.88 7.99 9.12 7.44 8.16
22.44 22.42 21.42 21.28 27.40 27.30 28.35 28.52 28.88 26.93 25.97 25.50 24.32 23.15 25.45 26.77 25.51 24.28 23.12 23.95 23.15 21.99 20.99 20.38 19.21 17.91 16.79 17.61 16.53 14.60 14.55 15.08 12.86 10.28 9.76 8.90 8.71 7.19 8.12 7.19 4.29 16.67 15.80 16.71

GFSCGP_sfc_wetblb_084.txt.gz
Wetbulb
39.97 36.05 34.26 38.09 37.76 37.52 36.20 34.63 33.96 36.48 40.72 37.80 37.13 38.49 41.22 39.89 38.23 37.68 37.53 37.35 37.83 38.37 38.77 40.23 40.87 41.15 40.49 40.36 42.01 42.03 41.85 42.26 42.41 41.23 39.94 39.57 37.11 37.27 37.11 37.42 37.98 37.86 37.36 36.55
37.10 34.06 40.91 41.83 39.72 38.21 35.89 34.50 34.96 37.33 39.70 38.20 37.51 36.71 38.84 39.19 39.36 40.86 40.87 39.51 38.89 35.92 38.07 38.82 39.17 39.96 39.87 41.17 42.13 42.04 41.70 42.34 42.35 41.15 39.36 38.58 35.96 36.30 35.81 35.65 35.19 35.08 34.75 34.42
35.24 38.85 41.59 40.46 37.82 36.26 35.41 34.72 33.74 35.44 38.35 36.72 35.33 35.70 36.90 39.52 39.83 40.80 42.20 43.06 40.86 37.93 37.53 37.87 38.68 38.85 39.51 41.65 41.53 41.81 42.18 42.22 41.48 39.38 37.28 35.86 35.70 35.15 34.00 33.65 33.36 33.01 32.98 32.40
37.36 41.32 40.33 37.17 37.03 38.30 34.06 38.91 38.48 37.25 33.87 30.35 34.77 30.72 35.11 37.33 38.20 39.12 42.26 41.87 38.30 37.63 38.21 38.14 38.34 37.31 39.58 41.78 42.53 42.32 42.00 39.68 38.91 38.41 36.44 34.95 34.17 32.11 32.72 32.45 32.56 32.21 31.77 31.42
37.27 38.14 37.47 37.29 37.85 39.49 36.27 39.05 37.37 35.75 32.39 30.57 31.07 29.15 32.10 35.91 35.90 38.91 42.31 41.20 36.79 37.08 38.08 37.48 37.60 38.40 39.40 41.78 41.50 40.84 39.63 38.85 38.34 37.75 37.16 35.04 32.13 32.07 32.03 31.62 30.87 30.03 30.13 30.65
37.70 39.15 39.32 39.70 39.02 39.76 39.63 36.93 35.24 32.54 30.87 26.32 31.37 30.93 36.09 36.41 39.04 39.26 38.98 35.75 35.97 35.94 37.28 37.07 37.21 37.83 38.44 40.32 39.64 38.89 38.69 37.83 38.26 37.27 35.90 34.01 31.90 30.90 29.96 29.32 28.68 28.52 28.80 28.65
35.46 36.50 38.11 39.56 36.03 36.82 36.67 33.73 26.62 24.35 23.60 26.29 31.13 29.82 36.30 38.31 40.24 39.91 39.62 33.58 33.82 36.00 36.09 35.30 35.10 35.67 37.56 38.71 38.43 38.54 38.25 36.45 36.39 35.52 34.48 33.44 32.09 31.19 29.19 28.62 28.20 27.62 27.27 26.85
30.18 30.31 36.17 38.84 38.62 35.65 33.58 34.55 28.13 20.42 21.86 24.84 29.44 26.32 32.56 37.10 37.22 36.74 37.78 34.75 33.88 34.83 35.75 34.67 34.71 34.18 35.39 37.28 37.48 37.58 36.23 35.03 34.85 34.26 33.60 33.44 32.28 30.53 29.32 28.84 28.46 27.88 27.25 26.82
30.64 31.40 36.34 37.14 37.73 40.10 32.80 31.37 37.59 30.56 21.22 23.27 28.71 32.05 37.43 37.33 35.08 34.05 32.93 32.51 32.36 33.44 33.63 33.19 33.52 33.41 33.66 34.15 35.45 35.75 34.88 34.34 34.27 33.63 33.32 32.55 31.02 29.74 28.56 28.12 28.15 27.23 26.34 26.38
36.15 31.57 34.11 35.53 38.88 37.25 35.93 37.07 29.25 31.97 22.39 21.34 25.83 27.59 32.18 35.45 35.90 33.73 31.51 30.52 30.86 30.58 31.35 31.01 31.92 32.34 33.00 33.70 33.16 34.95 34.86 33.93 33.62 33.40 32.96 31.03 29.79 29.04 28.36 27.71 26.21 25.86 25.27 25.09
37.89 36.57 32.95 34.16 33.57 33.55 33.96 32.12 33.47 34.84 31.04 23.30 20.32 27.88 34.49 35.78 36.00 34.37 32.87 32.15 31.05 30.22 30.40 30.33 30.72 31.24 32.30 32.44 33.45 33.65 33.71 32.88 32.15 32.44 30.71 28.75 27.91 27.68 27.23 26.11 25.30 24.97 24.75 23.91
38.47 36.94 30.12 32.98 34.53 36.09 37.90 36.41 36.75 31.07 27.24 28.19 26.57 31.15 34.76 34.15 35.02 34.94 33.50 32.79 31.18 30.31 30.17 30.10 29.77 29.94 29.20 30.50 32.57 32.46 32.33 31.95 31.96 31.05 28.70 27.71 26.92 26.08 25.15 24.38 24.05 24.36 23.19 23.34
40.41 34.96 30.39 27.68 34.96 36.20 34.14 35.01 37.95 37.82 33.92 30.90 28.65 31.03 33.43 34.26 33.87 33.26 32.31 31.47 30.47 28.74 27.94 28.53 28.90 29.31 28.80 29.54 31.46 31.88 31.64 31.40 30.00 28.93 27.49 26.11 25.28 24.84 23.88 23.61 23.76 23.29 22.49 21.81
43.58 34.68 30.71 27.95 29.41 33.00 29.40 32.08 35.95 36.21 31.98 29.84 32.20 34.67 36.13 32.85 32.77 32.95 31.40 31.50 29.80 29.34 29.02 28.25 29.04 29.64 29.32 29.55 29.62 30.19 30.36 29.67 29.06 27.95 26.30 25.11 24.55 24.28 23.88 23.83 22.92 22.54 22.31 21.45
41.33 34.29 34.35 35.70 35.63 32.51 30.77 30.93 33.16 33.74 35.31 32.40 34.76 33.80 38.24 38.07 37.95 37.89 34.01 32.13 30.37 29.14 29.19 28.71 28.63 29.55 29.28 29.18 29.78 30.02 29.87 29.58 28.95 27.33 25.79 24.76 24.57 24.13 23.63 23.16 22.91 22.61 22.13 21.54
38.29 35.02 33.19 34.24 35.04 34.25 34.52 36.01 33.10 34.87 36.03 36.18 36.61 35.58 42.07 38.76 35.87 34.53 34.37 33.28 31.63 30.84 30.33 30.14 29.90 29.94 29.44 29.75 30.03 30.35 29.99 29.51 28.99 27.30 25.99 25.48 24.34 23.72 23.60 23.23 22.66 22.09 21.43 20.66
36.11 35.33 33.35 30.34 34.52 34.03 30.37 34.57 35.69 36.69 37.72 36.95 32.79 37.47 41.40 38.30 39.70 40.32 34.58 34.14 33.57 33.17 31.86 30.86 29.95 29.99 30.37 30.43 31.03 30.20 30.08 29.86 28.74 27.06 25.98 24.68 24.36 23.59 23.19 22.66 21.77 21.02 20.03 19.78
33.13 34.39 34.77 31.11 31.68 24.49 31.96 29.73 36.51 36.40 37.67 38.98 38.76 39.02 39.83 40.02 41.22 41.55 39.73 37.02 35.35 34.85 33.06 32.41 31.94 31.61 31.49 31.74 31.54 31.22 30.19 29.15 28.38 26.83 25.40 24.82 24.10 23.24 22.38 21.37 20.75 20.02 19.26 18.36
33.81 31.85 29.99 26.03 26.97 27.38 28.80 27.99 30.91 33.20 33.71 37.92 38.62 40.12 40.60 38.80 32.93 35.73 38.43 39.14 37.99 36.51 35.68 34.64 33.69 32.94 32.02 31.29 31.41 30.37 28.96 28.75 28.07 26.74 25.40 24.80 24.04 22.80 21.38 20.44 19.82 19.39 18.61 17.45
31.36 32.16 30.53 27.85 23.94 21.93 27.16 26.64 29.87 31.56 26.65 28.84 35.90 38.84 38.02 32.27 29.56 37.71 37.35 35.68 35.05 35.30 35.69 34.17 32.86 32.83 31.43 31.12 31.05 29.60 28.45 28.25 27.66 27.33 26.42 25.00 24.41 23.33 21.43 21.21 19.81 19.63 19.12 17.97
24.33 26.01 25.09 26.92 25.90 26.95 30.37 27.92 29.93 23.47 28.30 27.36 31.50 32.94 30.76 31.50 35.61 32.38 32.86 32.87 32.45 33.24 34.08 33.72 32.16 31.52 31.60 31.21 30.61 28.96 28.69 27.81 29.16 28.23 26.26 24.77 24.11 23.36 22.68 21.58 20.06 18.40 17.08 16.25
24.26 24.41 24.14 26.70 25.05 22.13 28.90 26.77 29.43 30.03 25.88 26.22 29.05 32.00 32.07 30.11 27.87 28.00 29.12 28.97 30.23 30.60 30.94 31.33 30.01 29.12 28.67 30.27 30.03 28.61 27.68 29.46 29.11 27.18 25.13 24.03 23.66 23.33 22.27 21.11 18.69 17.17 15.48 13.44
23.86 27.44 24.46 27.98 26.64 27.61 27.15 26.86 27.15 27.03 26.82 26.02 28.09 30.47 31.31 28.29 27.48 27.12 26.28 25.99 27.59 27.24 27.64 26.70 26.31 24.74 25.25 27.80 29.02 27.56 27.59 26.85 25.44 24.71 23.82 23.19 23.19 22.68 20.90 19.90 17.39 13.88 12.98 11.64
23.51 25.26 25.23 26.15 28.00 28.10 28.44 28.04 27.36 27.64 27.22 27.09 26.87 28.16 28.25 28.01 26.81 26.38 26.08 25.84 26.36 25.88 25.30 22.98 23.20 22.39 21.72 22.08 24.99 25.90 23.34 23.86 23.45 22.80 21.75 21.57 20.72 18.53 18.26 19.17 17.06 14.26 10.03 8.65
23.76 25.36 22.19 24.14 26.57 26.32 27.51 27.63 29.13 28.14 26.98 26.12 25.85 26.66 26.79 26.34 23.96 24.98 24.28 24.45 25.19 25.22 22.39 22.39 22.63 22.02 21.18 20.82 21.09 20.98 21.69 22.47 22.31 21.59 18.98 17.76 19.05 16.16 14.06 15.78 12.89 12.93 12.56 12.77
22.55 23.46 23.50 22.66 28.77 28.50 29.05 27.45 28.72 27.31 26.28 26.36 25.77 23.51 24.83 25.54 25.93 23.71 22.78 24.01 22.41 21.23 19.72 19.63 18.27 18.23 17.43 18.15 17.70 16.69 19.60 21.92 20.61 17.36 15.83 16.85 16.13 14.82 14.28 12.36 5.43 18.53 16.21 18.84